Torna al catalogo

COSMOS 1691 DEB

AttivoPO
NORAD 19111·DEBRIS·🇷🇺 Russia

Lanciato Oct 9, 1985 da Plesetsk Cosmodrome

Loading…

Prossimi Passaggi (prossime 24 ore)

TLE

AggiornatoSource: Space-Track

Epoca: Sep 14, 2026, 10:25 UTC

1 19111U 85094W   26257.43466622  .00000216  00000-0  10308-2 0  9997
2 19111  82.6076 147.5139 0008325 238.8581 297.3909 12.70295993784620

Traccia COSMOS 1691 DEB in tempo reale con AllMySat

Download on the App Store